Weather History for Exeter, United Kingdom

Change the Weather History Date:

Saturday, April 6, 2013

  Actual Average Record
Temperature  
Mean Temperature 38 °F -  
Max Temperature 50 °F 55 °F 62 °F (2007)
Min Temperature 27 °F 41 °F 26 °F (2006)
Degree Days  
Heating Degree Days 26    
Moisture  
Dew Point 28 °F    
Average Humidity 62    
Maximum Humidity 93    
Minimum Humidity 29    
Precipitation  
Precipitation 0.00 in - - ()
Sea Level Pressure  
Sea Level Pressure 30.25 in    
Wind  
Wind Speed 4 mph ()    
Max Wind Speed 10 mph    
Max Gust Speed -    
Visibility 6.2 miles    
Events      
Averages and records for this station are not official NWS values.
T = Trace of Precipitation, MM = Missing Value Source: Averaged Metar Reports

Daily Weather History Graph

Daily Weather History Graph

Search for Another Location

Airport:

Trip Planner

Search our weather history database for the weather conditions in past years. The results will help you decide how hot, cold, wet, or windy it might be!

Date:

Astronomy

Apr. 06, 2013 Rise Set
Actual Time 6:38 AM BST 7:54 PM BST
Civil Twilight 6:04 AM BST 8:28 PM BST
Nautical Twilight 5:23 AM BST 9:09 PM BST
Astronomical Twilight 4:39 AM BST 9:54 PM BST
Moon 4:38 AM BST (4/6) 3:45 PM BST (4/6)
Length of Visible Light 14h 23m
Length of Day
13h 15m
Waning Crescent, 17% of the Moon is Illuminated
Apr 6
Waning Crescent
Apr 10
New
Apr 18
First Quarter
Apr 25
Full
May 2
Last Quarter

Hourly Weather History & Observations

Time (BST) Temp. Windchill Dew Point Humidity Pressure Visibility Wind Dir Wind Speed Gust Speed Precip Events Conditions
12:20 AM 35.6 °F 31.7 °F 23.0 °F 60% 30.15 in - North 4.6 mph - N/A   Clear
12:50 AM 35 °F - 23 °F 49%  in - North 3.5 mph - -  
12:50 AM 35.6 °F 32.8 °F 23.0 °F 60% 30.15 in - North 3.5 mph - N/A   Clear
1:20 AM 33.8 °F 29.6 °F 23.0 °F 65% 30.18 in - North 4.6 mph - N/A   Clear
1:50 AM 33.8 °F 29.6 °F 23.0 °F 65% 30.18 in - North 4.6 mph - N/A   Clear
3:50 AM 29 °F - 23 °F 71%  in - NE 1.2 mph - -  
5:20 AM 30.2 °F 25.4 °F 26.6 °F 86% 30.21 in - North 4.6 mph - N/A   Clear
5:50 AM 32.0 °F - 26.6 °F 80% 30.21 in - NNE 1.2 mph - N/A   Clear
6:20 AM 30.2 °F - 26.6 °F 86% 30.24 in - Calm Calm - N/A   Clear
6:50 AM 27 °F - 25 °F 90%  in - NE 1.2 mph - -  
6:50 AM 28.4 °F - 26.6 °F 93% 30.24 in - Calm Calm - N/A   Clear
7:20 AM 30.2 °F - 26.6 °F 86% 30.24 in - Calm Calm - N/A   Clear
7:50 AM 32.0 °F 28.7 °F 28.4 °F 87% 30.24 in - NW 3.5 mph - N/A   Clear
8:20 AM 33.8 °F - 30.2 °F 87% 30.27 in - NNW 2.3 mph - N/A   Clear
8:50 AM 37.4 °F 33.8 °F 30.2 °F 75% 30.27 in - NNW 4.6 mph - N/A   Clear
9:20 AM 37.4 °F 32.1 °F 30.2 °F 75% 30.27 in 6.2 mi NNE 6.9 mph - N/A   Partly Cloudy
9:50 AM 41 °F - 32 °F 61%  in - NNE 5.8 mph - -  
9:50 AM 39.2 °F 33.6 °F 30.2 °F 70% 30.27 in 6.2 mi NNE 8.1 mph - N/A   Partly Cloudy
10:20 AM 41.0 °F 35.2 °F 30.2 °F 65% 30.27 in 6.2 mi NNE 9.2 mph - N/A   Partly Cloudy
10:50 AM 41.0 °F 35.2 °F 30.2 °F 65% 30.27 in 6.2 mi North 9.2 mph - N/A   Partly Cloudy
11:20 AM 42.8 °F 37.5 °F 30.2 °F 61% 30.27 in 6.2 mi NE 9.2 mph - N/A   Partly Cloudy
11:50 AM 44.6 °F 40.7 °F 30.2 °F 57% 30.30 in 6.2 mi NE 6.9 mph - N/A   Partly Cloudy
12:20 PM 44.6 °F 39.2 °F 28.4 °F 53% 30.27 in 6.2 mi ENE 10.4 mph - N/A   Partly Cloudy
12:50 PM 46 °F - 29 °F 38%  in - NE 6.9 mph - -  
12:50 PM 44.6 °F 40.2 °F 28.4 °F 53% 30.27 in 6.2 mi NE 8.1 mph - N/A   Partly Cloudy
1:20 PM 46.4 °F 43.5 °F 28.4 °F 50% 30.27 in 6.2 mi North 5.8 mph - N/A   Partly Cloudy
1:50 PM 46.4 °F 41.9 °F 28.4 °F 50% 30.27 in 6.2 mi North 9.2 mph - N/A   Partly Cloudy
2:20 PM 48.2 °F - 26.6 °F 43% 30.27 in 6.2 mi NW 5.8 mph - N/A   Partly Cloudy
2:50 PM 48.2 °F - 26.6 °F 43% 30.27 in 6.2 mi NNE 9.2 mph - N/A   Partly Cloudy
3:20 PM 48.2 °F - 28.4 °F 46% 30.27 in 6.2 mi North 6.9 mph - N/A   Partly Cloudy
3:50 PM 49 °F - 29 °F 32%  in - NNE 3.5 mph - -  
3:50 PM 50.0 °F - 28.4 °F 43% 30.24 in - NNE 9.2 mph - N/A   Clear
4:20 PM 48.2 °F - 30.2 °F 50% 30.24 in - North 6.9 mph - N/A   Clear
4:50 PM 50.0 °F - 28.4 °F 43% 30.24 in - NNW 6.9 mph - N/A   Clear
5:20 PM 50.0 °F - 28.4 °F 43% 30.24 in - North 6.9 mph - N/A   Clear
5:50 PM 50.0 °F - 28.4 °F 43% 30.24 in - NE 6.9 mph - N/A   Clear
6:20 PM 50.0 °F - 28.4 °F 43% 30.24 in - Variable 2.3 mph - N/A   Clear
6:50 PM 48 °F - 26 °F 29%  in - ESE 1.2 mph - -  
6:50 PM 48.2 °F - 28.4 °F 46% 30.24 in - ENE 5.8 mph - N/A   Clear
7:20 PM 48.2 °F - 26.6 °F 43% 30.24 in - ENE 2.3 mph - N/A   Clear
7:50 PM 46.4 °F 45.2 °F 30.2 °F 53% 30.24 in - SW 3.5 mph - N/A   Clear
8:20 PM 42.8 °F - 30.2 °F 61% 30.24 in - Variable 2.3 mph - N/A   Clear
8:50 PM 41.0 °F 38.0 °F 32.0 °F 70% 30.27 in - South 4.6 mph - N/A   Clear
9:20 PM 41.0 °F 38.0 °F 32.0 °F 70% 30.27 in - SW 4.6 mph - N/A   Clear
9:50 PM 36 °F - 31 °F 76%  in - ENE 2.3 mph - -  
9:50 PM 39.2 °F - 32.0 °F 75% 30.27 in - SSE 1.2 mph - N/A   Clear
10:20 PM 37.4 °F - 30.2 °F 75% 30.27 in - Calm Calm - N/A   Clear
10:50 PM 37.4 °F - 32.0 °F 81% 30.27 in - Calm Calm - N/A   Clear
11:20 PM 35.6 °F - 30.2 °F 81% 30.27 in - Variable 2.3 mph - N/A   Clear
11:50 PM 37.4 °F - 32.0 °F 81% 30.27 in - Calm Calm - N/A   Clear